RH
19 18 11 18 29 33 26 31 32 32 31 31 43 58 58 67 66 68 69 74 87 77 72 66 66 69 80 91 75 54 48 79 65 36 22 25 29 22 15 14 13 14 13 14 14 20 34
14 13 22 15 12 20 29 29 33 31 32 31 37 37 58 56 54 68 69 65 85 90 84 73 73 68 78 90 71 72 60 71 73 49 30 32 29 20 16 14 14 13 13 12 13 18 32
8 10 15 20 26 14 16 27 30 34 29 33 34 33 41 43 51 63 76 90 96 96 99 77 75 76 81 87 72 98 85 84 83 62 36 36 25 20 22 17 15 14 13 13 11 12 18
8 8 15 20 25 30 21 16 26 30 33 28 34 36 37 45 67 73 74 82 99 99 99 98 92 85 91 74 67 93 76 95 83 55 41 32 25 33 35 30 20 22 20 16 15 16 19
10 8 13 16 21 30 31 26 17 26 31 26 27 37 39 42 53 74 85 85 83 98 97 98 96 95 94 75 67 83 75 88 72 45 37 34 34 48 43 32 27 37 26 21 14 12 19
16 13 14 23 28 31 33 32 31 18 27 29 24 26 29 37 46 64 80 90 97 98 94 96 93 81 87 81 80 80 66 65 50 38 41 45 47 49 44 38 34 38 26 16 14 12 10
9 24 23 27 30 30 30 36 35 33 19 32 29 30 31 36 41 57 69 81 89 96 99 94 81 90 89 79 72 67 53 42 39 33 50 64 61 48 43 41 35 25 22 19 15 14 11
7 9 21 27 29 28 28 38 38 40 33 18 29 31 31 33 34 42 52 67 79 87 96 97 95 82 67 69 60 48 41 42 35 51 68 53 57 45 42 40 28 32 25 20 18 13 14
7 7 7 7 8 12 23 35 34 36 37 29 15 26 28 30 31 32 33 48 64 78 91 91 88 76 68 62 51 44 48 39 38 70 63 49 49 39 40 37 32 27 22 18 20 16 14
6 7 8 7 8 11 21 32 36 38 38 35 14 13 24 28 30 28 31 30 45 50 48 67 63 67 72 68 62 63 49 54 48 51 54 45 40 35 26 30 29 26 22 17 17 22 20
8 7 7 8 8 14 21 29 32 37 39 24 12 11 12 17 23 26 25 28 33 49 60 46 58 62 56 56 57 61 56 51 40 42 36 42 38 32 25 25 27 26 25 22 18 20 18
12 9 7 8 8 16 20 26 31 34 33 31 13 12 12 12 16 21 21 30 40 47 48 46 52 55 49 55 56 56 56 46 38 32 29 30 31 26 33 26 29 26 22 22 19 17 28
16 13 10 8 8 9 22 26 26 30 31 27 12 13 12 13 14 16 21 30 37 38 37 40 45 47 48 51 51 52 49 47 40 39 38 31 32 26 33 25 25 25 21 20 31 42 52
18 17 14 10 9 8 13 24 27 26 29 27 16 13 12 15 18 26 31 31 30 39 39 39 40 37 37 46 45 40 39 43 32 27 29 27 29 28 28 25 20 21 18 17 33 56 49
18 18 18 16 11 9 9 16 23 27 27 28 22 15 15 15 17 20 22 20 25 30 30 34 34 34 34 36 34 34 32 31 28 25 22 20 23 23 23 22 20 18 19 19 25 34 33
17 17 17 17 17 13 10 12 16 21 27 27 26 17 14 22 21 21 21 19 23 27 28 31 33 29 26 29 30 28 26 24 26 25 24 22 24 23 23 22 23 21 20 21 21 25 29
14 17 18 17 17 18 15 12 12 17 22 26 28 25 16 17 20 23 22 20 26 27 25 26 30 34 29 29 30 25 24 24 21 21 23 21 21 26 23 20 19 23 23 20 22 20 29
9 11 15 18 20 16 18 18 15 12 14 18 21 27 26 20 15 20 20 23 22 21 19 21 23 27 26 29 32 29 26 21 20 19 18 17 16 17 20 19 20 19 21 22 22 22 29
4 5 7 10 18 23 17 18 19 19 19 18 16 18 28 28 27 20 17 20 21 20 19 19 20 19 20 21 22 23 22 21 20 20 18 18 17 17 18 22 20 21 21 22 24 22 23
4 4 4 4 6 19 26 21 20 20 26 25 23 16 18 24 30 29 29 21 14 14 14 15 17 19 19 18 18 17 17 17 16 16 17 15 15 14 12 17 17 17 15 16 27 28 22
4 3 3 4 4 6 20 28 27 21 22 25 24 26 17 20 23 29 34 32 32 35 27 16 10 11 12 12 13 13 13 12 10 11 13 14 13 11 11 10 10 10 12 15 13 11 18
4 4 3 3 4 4 6 21 30 28 24 25 26 27 27 20 20 22 27 34 36 35 33 35 43 39 26 14 10 9 9 9 9 9 9 9 9 8 9 10 10 11 12 9 9 10 11
5 4 4 4 3 4 4 7 22 31 28 27 28 28 30 29 21 21 22 24 29 37 38 35 34 37 42 44 48 50 50 47 43 42 37 32 32 43 47 45 48 43 23 26 27 30 36
5 5 4 4 4 3 3 4 8 23 31 26 31 32 32 30 29 21 20 20 25 29 36 39 40 40 38 39 41 42 43 44 44 45 48 52 56 57 55 57 72 33 29 32 34 30 32
5 5 5 4 4 4 3 3 5 11 24 27 34 35 36 34 31 28 22 23 26 27 27 30 40 42 42 43 44 44 40 40 37 39 45 54 61 60 58 67 44 34 35 32 38 40 40
6 5 5 5 4 4 4 3 3 6 15 22 29 36 38 37 34 32 30 28 33 34 33 31 32 38 44 50 51 51 43 44 47 49 43 58 68 68 69 75 75 40 39 39 42 47 41
5 5 5 5 5 4 4 4 4 4 9 17 25 35 37 39 39 36 37 39 38 37 37 37 35 36 42 54 60 55 50 49 50 52 45 55 75 69 70 75 61 47 54 56 64 53 57
5 6 5 5 5 5 5 4 4 5 8 13 24 34 39 41 44 44 43 44 42 39 38 40 42 42 47 56 62 58 58 62 65 60 56 54 55 62 74 82 74 54 57 62 64 70 75
7 7 6 6 6 5 5 5 5 6 9 15 27 38 45 45 49 52 52 50 48 44 43 38 39 44 52 57 62 70 67 72 64 69 56 68 57 56 56 60 62 73 81 86 91 92 95
Wind_Speed
20 17 15 14 14 16 20 21 21 22 24 24 23 20 19 18 15 13 12 9 9 7 9 11 12 17 19 18 16 14 24 22 25 28 31 33 35 34 34 34 33 31 30 23 21 18 15
19 19 19 18 17 15 16 19 22 22 20 21 21 23 19 22 25 26 21 5 7 10 10 10 10 14 17 15 15 9 22 22 23 26 30 32 32 29 31 31 30 30 26 27 24 21 18
18 19 19 21 20 18 15 15 18 22 20 17 18 20 18 20 20 23 28 10 6 4 7 11 12 11 12 16 17 10 18 19 20 22 27 28 30 28 29 27 29 21 25 24 24 24 21
18 18 19 20 21 21 19 14 14 17 22 19 15 14 16 17 18 18 20 24 7 1 4 10 14 11 10 13 20 12 8 18 18 23 27 30 31 23 23 21 25 17 21 20 25 23 22
18 18 19 20 21 22 21 17 13 13 16 20 16 12 15 18 16 18 18 16 17 1 6 10 14 12 8 13 19 17 6 16 18 24 29 29 31 21 22 20 25 18 19 23 20 26 25
18 19 19 21 22 23 23 20 15 11 11 14 14 17 17 17 16 17 20 17 13 4 17 13 17 8 11 15 16 15 10 18 22 26 29 25 29 20 22 24 27 20 9 22 22 22 23
17 19 20 21 23 25 26 23 16 12 8 8 10 13 15 17 19 21 20 17 17 24 19 10 7 10 15 13 14 16 16 21 24 27 30 23 23 20 22 20 17 18 15 10 20 15 20
16 17 19 20 22 24 27 25 17 13 11 8 7 8 10 11 13 13 16 16 28 17 17 21 17 12 10 15 15 17 22 24 27 29 25 23 20 19 20 18 11 18 18 13 8 20 14
15 17 18 20 22 23 26 25 20 16 13 14 7 8 7 9 9 10 10 9 11 16 10 20 17 12 12 12 15 17 19 22 24 27 23 24 20 16 18 17 16 12 14 16 8 13 17
15 17 18 20 21 23 24 25 21 19 14 14 13 10 10 10 10 11 11 7 3 5 8 9 9 9 11 14 15 14 19 22 21 23 17 16 19 17 14 17 17 10 11 13 13 8 7
14 16 18 20 21 21 24 26 24 22 15 13 16 14 12 10 11 11 9 8 3 2 4 4 8 15 11 1 15 17 19 14 15 23 12 9 16 18 13 15 14 8 5 12 14 12 11
14 15 16 18 20 21 22 26 26 25 18 15 17 15 14 11 10 9 8 5 3 1 3 5 11 6 2 14 17 16 12 13 17 20 10 12 14 13 11 14 12 6 8 8 8 9 5
13 14 15 16 18 19 20 23 25 26 22 19 17 15 14 13 11 10 7 3 3 5 2 4 7 11 14 15 15 12 14 19 13 14 12 16 14 16 14 16 14 12 8 1 1 1 4
13 14 14 15 16 18 18 20 23 24 26 21 19 16 13 12 11 12 9 5 7 7 7 9 11 10 10 16 14 9 10 19 12 7 15 11 8 15 14 16 13 16 12 3 6 3 4
13 13 14 14 15 17 18 18 20 22 24 25 21 19 12 10 9 9 8 6 4 7 12 9 7 4 13 12 9 10 12 13 11 11 4 8 6 18 13 15 14 13 12 12 2 3 2
12 14 14 14 14 15 17 18 18 20 21 22 22 19 18 13 6 8 7 7 7 10 10 5 3 4 5 7 8 10 11 8 11 9 6 6 4 17 12 15 14 10 10 6 7 2 4
10 12 14 15 14 14 14 15 17 18 20 19 18 22 19 16 14 5 5 12 12 7 3 1 2 4 6 11 7 8 8 7 12 11 7 6 3 8 14 12 13 16 14 9 6 5 4
9 10 12 15 16 16 14 13 13 15 17 17 17 18 18 15 15 10 8 10 8 4 4 4 2 2 7 6 8 8 10 6 11 12 11 9 5 6 11 10 15 17 17 17 9 7 8
11 11 11 13 15 16 16 17 15 13 14 16 15 15 14 14 11 12 8 4 2 1 1 2 4 3 2 4 3 8 5 6 8 11 7 9 6 4 3 9 15 18 21 21 21 14 13
14 14 13 12 13 16 16 15 16 16 14 16 17 14 13 13 11 9 9 8 6 6 4 2 0 4 5 5 5 3 5 5 6 8 9 6 8 8 5 1 3 7 11 16 22 14 20
17 18 17 16 14 15 17 17 15 15 15 15 16 16 14 12 11 10 7 5 5 6 6 6 4 3 3 3 5 6 7 7 7 8 9 9 9 12 14 15 16 17 18 17 23 27 24
21 20 20 20 19 15 15 18 19 15 15 15 15 16 15 13 11 9 9 7 4 4 5 6 6 6 6 6 6 4 5 7 9 9 11 13 10 11 13 16 19 23 23 25 28 31 34
25 24 22 23 22 21 18 17 19 20 16 16 16 15 17 17 13 12 9 8 9 9 7 4 5 7 7 8 8 9 10 10 10 9 10 11 10 8 7 13 13 19 23 24 28 32 31
29 28 26 25 25 24 23 21 20 19 20 18 17 16 17 18 17 15 14 13 11 10 10 11 12 11 11 10 11 12 13 14 15 16 16 15 12 9 7 8 3 13 16 15 16 15 17
32 31 30 29 29 27 25 26 24 22 21 19 19 19 19 20 19 19 17 14 14 14 14 14 13 14 14 13 14 12 13 16 19 21 21 21 18 9 6 9 17 14 14 16 20 21 20
35 34 32 32 30 32 28 26 28 27 25 22 20 21 21 23 23 20 19 19 19 18 19 17 17 17 17 17 15 8 7 5 6 6 10 17 18 17 10 6 5 3 9 11 14 18 18
40 38 35 34 34 31 33 31 27 29 30 28 22 21 24 26 26 22 20 21 24 24 24 22 20 19 19 18 18 16 14 14 9 10 12 17 18 24 24 12 10 17 17 15 9 11 10
44 41 40 37 36 35 32 35 33 29 31 33 27 25 25 28 29 27 26 24 23 24 24 22 19 20 18 18 15 15 12 13 14 17 11 12 8 10 12 10 10 10 11 10 11 13 17
45 43 44 40 37 39 35 35 36 33 31 33 30 28 27 30 31 31 28 29 29 28 27 26 26 20 11 9 11 10 11 10 15 9 18 15 17 14 13 7 10 11 12 17 23 26 26
Wind_Direction
29 25 17 15 11 8 9 13 18 19 20 21 19 27 30 24 8 344 311 279 253 232 217 215 206 203 208 213 205 199 199 202 202 202 195 195 194 194 197 200 201 204 211 210 207 208 200
26 25 23 18 10 8 6 11 13 16 19 22 24 25 39 44 35 24 12 307 242 226 210 198 200 211 215 206 197 208 195 200 201 201 194 191 188 187 197 199 199 206 209 208 206 208 205
26 26 23 24 17 13 10 8 13 14 16 18 25 31 41 30 23 22 33 49 83 187 209 193 189 190 204 198 189 171 196 197 193 197 190 183 183 182 189 196 194 202 209 207 208 216 220
27 26 24 23 21 15 10 5 9 11 12 13 15 19 20 26 24 25 25 37 53 35 219 205 167 170 184 191 187 156 175 193 187 185 179 177 176 174 175 185 185 195 200 201 206 210 216
27 26 25 21 18 15 14 4 5 6 15 20 18 17 17 27 43 44 40 23 27 39 101 165 147 154 156 180 183 203 162 180 178 176 174 174 171 169 176 179 178 182 200 200 204 215 223
26 27 26 25 19 17 14 9 4 4 14 29 36 52 52 53 58 61 62 54 18 14 89 103 123 140 166 167 172 194 179 170 169 170 169 171 172 175 173 178 184 185 177 206 208 217 223
25 27 24 21 17 15 12 10 10 9 8 19 20 36 48 62 64 67 69 65 46 68 58 75 133 133 151 160 155 171 166 161 162 167 169 169 174 173 170 184 201 199 192 201 216 219 225
28 27 23 16 13 11 14 14 18 22 15 4 345 6 12 27 46 56 60 57 60 44 84 69 117 102 138 149 156 164 158 159 163 164 167 166 177 172 174 178 183 206 210 217 224 217 230
25 28 24 21 16 11 16 18 23 30 30 20 353 318 335 346 357 8 35 60 85 72 45 49 59 80 123 147 149 150 153 156 161 166 169 172 177 181 187 192 203 207 215 216 232 220 231
20 18 23 23 22 18 18 20 20 22 34 24 16 355 324 319 327 342 355 10 58 88 85 49 71 101 112 122 131 136 148 142 155 169 166 180 186 191 192 200 203 219 223 222 218 217 227
22 20 16 17 19 22 19 21 17 15 17 32 26 14 4 336 327 333 349 348 8 101 53 48 105 122 117 140 133 136 136 141 160 169 162 161 184 193 198 200 198 218 219 199 212 231 254
17 20 18 18 13 19 22 21 22 20 20 25 28 34 26 13 349 345 2 7 32 47 38 120 135 168 117 132 140 139 148 152 157 165 171 169 173 185 202 197 198 213 197 191 209 231 262
14 13 16 17 19 16 22 24 24 24 21 18 24 36 41 30 18 10 12 17 14 51 101 111 124 129 141 151 153 157 157 159 158 169 175 175 175 186 193 194 203 210 191 136 302 266 220
18 13 10 13 16 17 22 22 25 27 23 20 15 27 57 47 48 33 32 34 56 62 98 124 135 138 156 165 178 171 174 175 182 171 162 166 177 186 193 195 201 205 203 206 199 195 271
19 19 15 13 10 13 15 23 23 25 30 25 17 18 24 53 56 45 44 64 110 103 125 116 109 125 147 162 179 192 189 200 194 195 180 178 179 187 189 195 197 205 215 223 286 299 301
14 13 15 16 16 16 10 13 21 23 25 31 27 22 20 21 49 81 77 97 113 129 137 128 126 159 179 192 185 186 185 201 195 202 201 185 151 193 192 201 206 207 206 201 209 181 260
359 3 5 10 10 14 20 13 11 18 21 22 31 32 21 28 36 63 94 109 112 107 46 327 205 164 169 170 185 201 203 201 195 197 193 177 189 184 204 214 217 216 216 211 201 217 180
331 344 354 357 2 4 6 15 14 15 15 16 20 34 34 24 32 54 89 125 132 111 65 66 84 281 186 205 202 206 212 206 198 199 202 203 201 183 201 213 220 224 225 223 221 219 215
308 319 332 342 348 357 1 1 4 12 17 10 9 16 27 33 34 26 38 46 16 14 73 131 135 161 219 225 237 228 237 229 212 208 208 207 213 183 208 234 230 228 229 228 228 237 234
298 304 312 322 331 337 347 354 358 356 5 12 10 6 5 15 27 41 26 5 352 343 338 350 224 170 181 207 225 221 236 227 217 217 225 234 240 235 225 244 259 241 247 244 234 239 242
283 292 300 306 314 323 329 335 346 350 347 356 5 5 354 349 1 2 18 18 357 341 329 324 309 278 246 235 229 229 222 219 226 229 234 235 250 250 257 265 265 259 255 253 248 252 247
279 283 290 296 303 309 316 321 327 340 342 340 345 351 354 336 335 343 345 342 336 325 317 312 299 295 289 277 263 271 251 248 246 242 239 243 258 267 273 266 268 269 263 258 259 258 259
276 280 284 290 296 302 306 310 313 320 328 334 335 335 341 337 318 316 320 323 316 311 299 276 284 282 275 273 270 267 263 257 253 257 255 254 256 267 258 267 273 277 269 256 260 261 264
272 277 282 285 289 294 299 301 303 306 313 320 325 326 327 329 317 304 301 304 302 299 289 288 283 278 274 273 275 276 273 270 265 260 258 256 261 258 278 277 266 264 262 259 256 253 262
271 275 278 282 284 286 291 295 297 296 298 302 310 319 320 316 318 306 294 289 289 291 289 284 277 273 275 275 276 279 276 274 266 262 254 251 250 249 251 231 273 260 258 251 261 270 276
267 270 272 275 277 283 281 284 290 291 290 290 293 305 314 314 316 300 288 285 285 285 283 280 273 269 267 266 263 247 226 239 252 253 247 243 239 228 226 236 241 267 251 259 273 277 276
265 267 268 270 273 273 279 279 277 282 286 284 281 290 301 310 307 292 284 283 284 283 280 278 272 266 262 257 249 243 241 238 234 227 234 231 228 230 236 244 263 261 261 263 264 290 286
260 261 263 265 267 269 270 274 275 275 280 281 278 280 289 302 300 283 282 279 281 279 278 275 271 263 255 243 242 243 242 234 240 236 239 242 231 223 228 231 266 262 264 254 270 275 286
259 263 263 261 262 266 267 270 272 271 269 273 276 277 287 292 293 280 277 280 280 274 268 264 261 255 244 236 234 233 234 233 236 240 244 247 247 255 241 238 275 293 280 279 282 291 294